Weather History for Buffalo, WY

Change the Weather History Date:

Monday, March 4, 2013

  Actual Average Record
Temperature  
Mean Temperature 22 °F 31 °F  
Max Temperature 30 °F 42 °F 68 °F (2000)
Min Temperature 13 °F 20 °F 2 °F (2003)
Degree Days  
Heating Degree Days 43 34  
Month to date heating degree days 118 137  
Since 1 July heating degree days 5067 5377  
Cooling Degree Days 0 0  
Month to date cooling degree days 0 0  
Year to date cooling degree days 0 0  
Moisture  
Dew Point 11 °F    
Average Humidity 63    
Maximum Humidity 80    
Minimum Humidity 46    
Precipitation  
Precipitation T in 0.02 in 0.03 in (2011)
Month to date precipitation T 0.08  
Year to date precipitation 0.61 0.85  
Sea Level Pressure  
Sea Level Pressure 30.11 in    
Wind  
Wind Speed 26 mph (NNW)    
Max Wind Speed 37 mph    
Max Gust Speed 60 mph    
Visibility 9 miles    
Events Snow    
T = Trace of Precipitation, MM = Missing Value Source: NWS Daily Summary

Daily Weather History Graph

Daily Weather History Graph

Search for Another Location

Airport:

Trip Planner

Search our weather history database for the weather conditions in past years. The results will help you decide how hot, cold, wet, or windy it might be!

Date:

Astronomy

Mar. 04, 2013 Rise Set
Actual Time 6:38 AM MST 5:59 PM MST
Civil Twilight 6:09 AM MST 6:28 PM MST
Nautical Twilight 5:35 AM MST 7:02 PM MST
Astronomical Twilight 5:02 AM MST 7:35 PM MST
Moon 1:00 AM MST (3/4) 10:33 AM MST (3/4)
Length of Visible Light 12h 19m
Length of Day
11h 20m
Waning Gibbous, 51% of the Moon is Illuminated
Mar 4
Waning Gibbous
Mar 4
Last Quarter
Mar 11
New
Mar 19
First Quarter
Mar 27
Full

Hourly Weather History & Observations

Time (MST) Temp. Windchill Dew Point Humidity Pressure Visibility Wind Dir Wind Speed Gust Speed Precip Events Conditions
12:53 AM 28.9 °F 19.2 °F 10.9 °F 47% 29.79 in 10.0 mi NNW 11.5 mph - N/A   Scattered Clouds
1:53 AM 25.0 °F 11.3 °F 12.9 °F 60% 29.81 in 10.0 mi NNW 18.4 mph 26.5 mph N/A   Clear
2:53 AM 24.1 °F 8.3 °F 14.0 °F 65% 29.79 in 10.0 mi NNW 24.2 mph 36.8 mph N/A   Clear
3:53 AM 21.9 °F 5.8 °F 10.0 °F 60% 29.82 in 10.0 mi NNW 23.0 mph 36.8 mph N/A   Clear
4:53 AM 19.9 °F 3.5 °F 10.0 °F 65% 29.85 in 10.0 mi NNW 21.9 mph 35.7 mph N/A   Clear
5:53 AM 18.0 °F 1.3 °F 9.0 °F 68% 29.91 in 10.0 mi NNW 20.7 mph 36.8 mph N/A   Clear
6:53 AM 17.1 °F -3.2 °F 9.0 °F 71% 29.94 in 10.0 mi NNW 32.2 mph 43.7 mph N/A   Clear
7:53 AM 19.9 °F 2.8 °F 8.1 °F 60% 29.97 in 10.0 mi NNW 24.2 mph 39.1 mph N/A   Clear
8:53 AM 19.9 °F 0.7 °F 12.0 °F 71% 30.00 in 10.0 mi NNW 32.2 mph 42.6 mph N/A   Scattered Clouds
9:53 AM 19.9 °F 1.8 °F 12.0 °F 71% 30.04 in 7.0 mi NNW 27.6 mph 42.6 mph N/A   Mostly Cloudy
10:53 AM 21.9 °F 3.7 °F 9.0 °F 58% 30.07 in 10.0 mi NNW 31.1 mph 47.2 mph N/A   Overcast
11:53 AM 23.0 °F 4.4 °F 10.0 °F 58% 30.09 in 10.0 mi NNW 34.5 mph 46.0 mph N/A   Overcast
12:53 PM 21.9 °F 2.4 °F 8.1 °F 55% 30.12 in 10.0 mi NW 36.8 mph 55.2 mph N/A   Overcast
1:53 PM 21.9 °F 3.9 °F 10.9 °F 63% 30.16 in 10.0 mi NNW 29.9 mph 46.0 mph N/A   Partly Cloudy
2:42 PM 19.4 °F -0.8 °F 12.2 °F 74% 30.06 in 5.0 mi North 35.7 mph 46.0 mph 0.00 in   Mostly Cloudy
2:53 PM 19.9 °F 0.7 °F 12.9 °F 74% 30.20 in 5.0 mi NNW 32.2 mph 44.9 mph 0.00 in Snow Light Snow
3:53 PM 19.9 °F 0.2 °F 12.9 °F 74% 30.24 in 7.0 mi North 34.5 mph 40.3 mph 0.00 in Snow Light Snow
4:20 PM 19.4 °F -0.3 °F 10.4 °F 68% 30.10 in 10.0 mi North 33.4 mph 42.6 mph 0.00 in Snow Light Snow
4:53 PM 19.0 °F -0.8 °F 10.9 °F 71% 30.27 in 10.0 mi North 33.4 mph 44.9 mph 0.00 in   Scattered Clouds
5:53 PM 17.1 °F -1.4 °F 10.9 °F 77% 30.31 in 10.0 mi NNW 25.3 mph 38.0 mph N/A   Clear
6:53 PM 16.0 °F -1.3 °F 10.9 °F 81% 30.36 in 10.0 mi NNW 20.7 mph 27.6 mph N/A   Clear
7:53 PM 16.0 °F -4.1 °F 10.9 °F 81% 30.35 in 10.0 mi North 29.9 mph 38.0 mph N/A   Clear
8:31 PM 15.8 °F -2.7 °F 10.4 °F 79% 30.21 in 9.0 mi NNW 24.2 mph 34.5 mph 0.00 in Snow Light Snow
8:44 PM 15.8 °F -1.5 °F 10.4 °F 79% 30.21 in 9.0 mi NNW 20.7 mph 28.8 mph 0.00 in Snow Light Snow
8:53 PM 15.1 °F -2.0 °F 10.9 °F 84% 30.39 in 9.0 mi NW 19.6 mph 28.8 mph 0.00 in Snow Light Snow
9:53 PM 15.1 °F -2.0 °F 10.0 °F 80% 30.40 in 9.0 mi NNW 19.6 mph 26.5 mph 0.00 in   Overcast
10:50 PM 14.0 °F -3.0 °F 8.6 °F 79% 30.24 in 10.0 mi NNW 18.4 mph 24.2 mph 0.00 in   Scattered Clouds
10:53 PM 14.0 °F -3.0 °F 9.0 °F 80% 30.41 in 10.0 mi NNW 18.4 mph - 0.00 in   Scattered Clouds